Date String (YYYY-MM-DD hh:mm:ss) UTC,Instrument flags,absolute air pressure of the measurement (hPa),sample flow rate (lpm),inlet stack bypass flow (lpm),air temperature of the measurement (°C),ambient temperature measured by the external sensor (°C),aerosol sample conditioner tube jacket temperature (°C),OPC LED temperature (°C),internal box temperature (°C),relative humidity of the measurement (%),span deviation,mass concentration of particles derived from Lorenz-Mie calculation of OPC scattering (μg/m³),mass concentration of particles derived from Lorenz-Mie calculation of OPC scattering (μg/m³),mass concentration of particles derived from Lorenz-Mie calculation of OPC scattering (μg/m³)
DateTimeUTC,F1_M11,P_M11,Q1_M11,Q2_M11,T1_M11,T2_M11,T3_M11,T4_M11,T5_M11,U1_M11,ZSPAN_M11,X0_M11,X2_M11,X1_M11
2024-05-03 15:00:00,SystemResetWarning,0822.8,5.01,000.00,023.8,023.3,000.0,032.0,025.5,018.8,0000.0,0012.15,0003.96,0002.99
2024-05-03 15:01:00,SystemResetWarning,0823.3,4.99,000.00,023.8,023.3,000.0,032.0,025.5,018.8,0000.0,0012.64,0003.97,0003.00
2024-05-03 15:02:00,SystemResetWarning,0823.2,4.99,000.00,023.8,023.3,000.0,032.1,025.5,018.5,0000.0,0013.40,0004.00,0003.03
2024-05-03 15:03:00,SystemResetWarning,0822.8,5.01,000.00,023.9,023.3,000.0,032.1,025.5,018.6,0000.0,0012.94,0004.03,0003.06
2024-05-03 15:04:00,SystemResetWarning,0822.7,5.01,000.00,023.9,023.3,000.0,032.1,025.5,018.6,0000.0,0014.15,0004.10,0003.08
2024-05-03 15:05:00,SystemResetWarning,0822.7,4.98,000.00,023.9,023.4,000.0,032.1,025.5,018.7,0000.0,0014.71,0004.14,0003.10
2024-05-03 15:06:00,SystemResetWarning,0822.7,4.99,000.00,023.9,023.4,000.0,032.1,025.6,019.1,0000.0,0014.29,0004.15,0003.11
2024-05-03 15:07:00,SystemResetWarning,0822.6,5.01,000.00,023.9,023.4,000.0,032.1,025.6,019.0,0000.0,0014.70,0004.15,0003.13
2024-05-03 15:08:00,SystemResetWarning,0822.8,5.00,000.00,023.9,023.4,000.0,032.1,025.6,019.1,0000.0,0014.91,0004.18,0003.15
2024-05-03 15:09:00,SystemResetWarning,0822.6,5.01,000.00,024.0,023.4,000.0,032.2,025.6,019.3,0000.0,0014.17,0004.22,0003.17
2024-05-03 15:10:00,SystemResetWarning,0822.9,5.00,000.00,024.0,023.4,000.0,032.2,025.6,019.8,0000.0,0013.82,0004.23,0003.18
2024-05-03 15:11:00,SystemResetWarning,0822.7,4.98,000.00,024.0,023.5,000.0,032.2,025.7,019.2,0000.0,0014.28,0004.26,0003.19
2024-05-03 15:12:00,SystemResetWarning,0822.7,4.99,000.00,024.0,023.5,000.0,032.2,025.6,019.0,0000.0,0014.12,0004.29,0003.21
2024-05-03 15:13:00,SystemResetWarning,0822.7,5.00,000.00,024.0,023.5,000.0,032.2,025.7,019.0,0000.0,0013.41,0004.31,0003.22
2024-05-03 15:14:00,SystemResetWarning,0822.7,5.00,000.00,024.0,023.5,000.0,032.2,025.7,018.7,0000.0,0013.33,0004.29,0003.23
2024-05-03 15:15:00,SystemResetWarning,0822.7,5.01,000.00,024.1,023.5,000.0,032.2,025.7,018.7,0000.0,0012.66,0004.27,0003.24
2024-05-03 15:16:00,SystemResetWarning,0822.6,4.98,000.00,024.1,023.5,000.0,032.3,025.7,019.2,0000.0,0011.70,0004.24,0003.25
2024-05-03 15:17:00,SystemResetWarning,0822.6,5.01,000.00,024.1,023.6,000.0,032.3,025.8,018.8,0000.0,0012.06,0004.20,0003.25
2024-05-03 15:18:00,SystemResetWarning,0822.6,5.01,000.00,024.1,023.6,000.0,032.3,025.9,018.6,0000.0,0011.70,0004.19,0003.25
2024-05-03 15:19:00,SystemResetWarning,0822.8,4.98,000.00,024.1,023.6,000.0,032.3,025.9,018.6,0000.0,0011.27,0004.23,0003.26
2024-05-03 15:20:00,SystemResetWarning,0822.6,5.00,000.00,024.1,023.6,000.0,032.3,025.9,019.0,0000.0,0011.68,0004.21,0003.26
2024-05-03 15:21:00,SystemResetWarning,0822.7,5.01,000.00,024.1,023.6,000.0,032.3,025.9,019.3,0000.0,0011.55,0004.17,0003.26
2024-05-03 15:22:00,SystemResetWarning,0822.5,5.01,000.00,024.2,023.6,000.0,032.4,025.9,018.8,0000.0,0010.69,0004.16,0003.26
2024-05-03 15:23:00,SystemResetWarning,0822.5,4.99,000.00,024.2,023.6,000.0,032.4,025.9,018.8,0000.0,0010.79,0004.17,0003.27
2024-05-03 15:24:00,SystemResetWarning,0822.5,4.99,000.00,024.2,023.6,000.0,032.4,025.9,019.2,0000.0,0010.64,0004.17,0003.28
2024-05-03 15:25:00,SystemResetWarning,0822.8,5.01,000.00,024.2,023.7,000.0,032.4,026.0,019.0,0000.0,0010.63,0004.20,0003.30
2024-05-03 15:26:00,SystemResetWarning,0822.5,5.01,000.00,024.2,023.7,000.0,032.4,026.0,019.0,0000.0,0010.44,0004.21,0003.31
2024-05-03 15:27:00,SystemResetWarning,0823.0,5.00,000.00,024.2,023.7,000.0,032.4,026.0,019.4,0000.0,0010.71,0004.26,0003.32
2024-05-03 15:28:00,SystemResetWarning,0823.0,5.00,000.00,024.2,023.7,000.0,032.4,025.9,019.3,0000.0,0010.43,0004.33,0003.33
2024-05-03 15:29:00,SystemResetWarning,0823.1,5.00,000.00,024.2,023.7,000.0,032.5,026.0,019.2,0000.0,0010.75,0004.39,0003.35
2024-05-03 15:30:00,SystemResetWarning,0822.9,5.00,000.00,024.3,023.7,000.0,032.5,026.1,019.1,0000.0,0011.98,0004.37,0003.36
2024-05-03 15:31:00,SystemResetWarning,0822.4,5.00,000.00,024.3,023.7,000.0,032.5,026.1,019.1,0000.0,0012.02,0004.41,0003.38
2024-05-03 15:32:00,SystemResetWarning,0822.4,5.00,000.00,024.3,023.8,000.0,032.5,026.1,018.9,0000.0,0012.46,0004.53,0003.42
2024-05-03 15:33:00,SystemResetWarning,0822.4,5.01,000.00,024.3,023.8,000.0,032.5,026.1,018.9,0000.0,0013.41,0004.57,0003.45
2024-05-03 15:34:00,SystemResetWarning,0822.4,5.00,000.00,024.3,023.8,000.0,032.6,026.1,019.4,0000.0,0013.27,0004.61,0003.46
2024-05-03 15:35:00,SystemResetWarning,0822.4,5.00,000.00,024.3,023.8,000.0,032.6,026.1,019.6,0000.0,0013.73,0004.64,0003.47
2024-05-03 15:36:00,SystemResetWarning,0822.4,5.00,000.00,024.3,023.8,000.0,032.6,026.1,019.8,0000.0,0013.32,0004.62,0003.48
2024-05-03 15:37:00,SystemResetWarning,0822.4,5.00,000.00,024.4,023.8,000.0,032.6,026.1,019.5,0000.0,0013.44,0004.64,0003.49
2024-05-03 15:38:00,SystemResetWarning,0822.7,4.99,000.00,024.4,023.8,000.0,032.6,026.1,019.1,0000.0,0013.47,0004.62,0003.49
2024-05-03 15:39:00,SystemResetWarning,0823.0,4.99,000.00,024.4,023.9,000.0,032.6,026.1,019.4,0000.0,0014.25,0004.67,0003.50
2024-05-03 15:40:00,SystemResetWarning,0822.9,5.00,000.00,024.4,023.9,000.0,032.6,026.1,019.0,0000.0,0014.90,0004.67,0003.51
2024-05-03 15:41:00,SystemResetWarning,0822.7,5.01,000.00,024.4,023.9,000.0,032.6,026.2,019.1,0000.0,0014.63,0004.70,0003.52
2024-05-03 15:42:00,SystemResetWarning,0822.5,4.99,000.00,024.4,023.9,000.0,032.6,026.2,019.1,0000.0,0014.72,0004.71,0003.53
2024-05-03 15:43:00,SystemResetWarning,0822.4,5.00,000.00,024.4,023.9,000.0,032.6,026.2,019.6,0000.0,0014.99,0004.63,0003.52
2024-05-03 15:44:00,SystemResetWarning,0822.4,5.00,000.00,024.5,023.9,000.0,032.7,026.3,018.9,0000.0,0014.17,0004.64,0003.52
2024-05-03 15:45:00,SystemResetWarning,0822.4,4.99,000.00,024.5,024.0,000.0,032.7,026.3,018.8,0000.0,0014.67,0004.67,0003.53
2024-05-03 15:46:00,SystemResetWarning,0822.4,5.00,000.00,024.5,024.0,000.0,032.7,026.3,018.7,0000.0,0014.04,0004.64,0003.53
2024-05-03 15:47:00,SystemResetWarning,0822.4,4.99,000.00,024.5,024.0,000.0,032.8,026.3,018.7,0000.0,0014.02,0004.70,0003.54
2024-05-03 15:48:00,SystemResetWarning,0822.4,5.00,000.00,024.5,024.0,000.0,032.8,026.3,018.7,0000.0,0014.86,0004.79,0003.55
2024-05-03 15:49:00,SystemResetWarning,0822.4,5.00,000.00,024.5,024.0,000.0,032.8,026.3,018.9,0000.0,0015.55,0004.79,0003.56
2024-05-03 15:50:00,SystemResetWarning,0822.4,5.00,000.00,024.5,024.0,000.0,032.8,026.3,018.9,0000.0,0015.55,0004.76,0003.56
2024-05-03 15:51:00,SystemResetWarning,0822.4,5.00,000.00,024.6,024.0,000.0,032.8,026.3,018.7,0000.0,0015.13,0004.77,0003.57
2024-05-03 15:52:00,SystemResetWarning,0822.4,5.00,000.00,024.6,024.0,000.0,032.8,026.3,019.0,0000.0,0015.03,0004.75,0003.58
2024-05-03 15:53:00,SystemResetWarning,0822.4,5.01,000.00,024.6,024.1,000.0,032.8,026.3,019.6,0000.0,0014.69,0004.73,0003.58
2024-05-03 15:54:00,SystemResetWarning,0822.4,5.00,000.00,024.6,024.1,000.0,032.8,026.4,019.5,0000.0,0014.39,0004.78,0003.58
2024-05-03 15:55:00,SystemResetWarning,0822.4,5.01,000.00,024.6,024.1,000.0,032.9,026.4,019.1,0000.0,0014.94,0004.83,0003.59
2024-05-03 15:56:00,SystemResetWarning,0822.4,5.00,000.00,024.7,024.2,000.0,032.9,026.5,018.8,0000.0,0015.25,0004.81,0003.60
2024-05-03 15:57:00,SystemResetWarning,0822.4,5.00,000.00,024.7,024.2,000.0,032.9,026.5,018.8,0000.0,0015.33,0004.80,0003.61
2024-05-03 15:58:00,SystemResetWarning,0822.4,5.00,000.00,024.7,024.2,000.0,032.9,026.5,018.7,0000.0,0015.45,0004.79,0003.60
2024-05-03 15:59:00,SystemResetWarning,0822.3,5.00,000.00,024.7,024.2,000.0,033.0,026.5,018.7,0000.0,0015.72,0004.72,0003.60
